CZ-6A DEB

Satellite information

Favourite Embed

Satellite Type and Status

DEBRISIN ORBIT

Key statistics

Satellite CZ-6A DEB at a glance.

Uptime

336

Days in orbit

Revolutions

≈ 14.6

Per day

Orbit

LEO

Low Earth Orbit

Inclination

88.8

Latest

Satellite identification and parameters

Extended collection of information and parameters for CZ-6A DEB.

Object identification

Identified? True

Debris? True

Object name: CZ-6A DEB

International designator: 2024-140RF

Object number (NORAD): 61161

Object ID (CCSDS): 61161

Country: PEOPLES REPUBLIC OF CHINA (PRC)

Current information (Y/N): Y

RCS size: SMALL

Orbital parameters

Period: 98.894 minutes

Inclination: 88.8274 deg

SMA: 7083.901 km

Apoapsis: 802.923 km

Periapsis: 608.609 km

RAAN: 304.341 deg

Eccentricy: 0.0137152

Argument of periapsis: 39.4343 deg

Mean anomaly: 321.6752 deg

Mean motion: 14.56109538 rev/day

Mean motion (dot): 0.00004129 rev/day2

B* drag term: 0.00082028 1/REarth

Two-line elements (TLE)

Creation date: July 6, 2025, 6:05 p.m.

Reference frame: TEME

Reference center: EARTH

Epoch: July 6, 2025, 7:58 a.m. UTC

TLE line 0: 0 CZ-6A DEB

TLE line 1: 1 61161U 24140RF 25187.33242143 .00004129 00000-0 82028-3 0 9990

TLE line 2: 2 61161 88.8274 304.3410 0137152 39.4343 321.6752 14.56109538 46260

Live tracking on map

Real-time ground track for satellite CZ-6A DEB.

In-orbit conjunctions

A list of the most updated potential collisions computed for object CZ-6A DEB.

Target Orbit TCA Probability of collision Miss distance Type
IRIDIUM 33 DEB LEO 2025-01-28 08:48:59 0.0002930563 575.0 (m) DEBRIS
COSMOS 249 DEB LEO 2024-12-19 05:09:22 0.0001280726 641.0 (m) DEBRIS
CZ-2D DEB SSO 2024-11-25 06:01:48 0.000304816 316.0 (m) DEBRIS
CZ-6A DEB LEO 2024-10-30 09:10:32 0.00111962 397.0 (m) DEBRIS
FENGYUN 1C DEB SSO 2024-10-07 10:21:02 0.001104416 482.0 (m) DEBRIS

Associated space launch

18 Low Earth Orbit communication satellites with Ku, Q and V band payloads for the G60 constellation operated by Shanghai Spacecom Satellite Technology (SSST) with funding backed by the Shanghai local government. Initial constellation will consist of 1296 satellites by 2027 with long term plans to expand it to 12000 satellites.

CZ-6A DEB was lifted into orbit during the mission ‘Long March 6A | G60 Polar Group 01’, on board a Long March 6A space rocket.

The launch took place on Aug. 6, 2024, 6:42 a.m. from Launch Complex 9A.

For more information about the launch, click the button.

Launch to space Long March 6A | G60 Polar Group 01
Long March 6A | G60 Polar Group 01

Agency: N/A

Status: Launch Successful

Launch date: Aug. 6, 2024, 6:42 a.m. UTC

Rocket: Long March 6A

Launch pad: Launch Complex 9A

Location: Taiyuan Satellite Launch Center, People's Republic of China

...

Latest news about this satellite

News about space launch
Brightness of first Chinese broadband constellation satellites alarms astronomers

The first satellites of a Chinese broadband constellation are significantly brighter than those of Western systems, posing a new challenge for astronomers.

News about space launch
Chinese rocket stage breaks up into cloud of more than 700 pieces of space debris

HELSINKI — A Chinese Long March 6A rocket’s upper stage has fragmented into a cloud of over 700 pieces of space debris, adding to concerns about long-term orbital safety. China […]

News about space launch
China's Thousand Sails Megaconstellation Kicks Off with Dangerous Debris Field

China's Thousand Sails Megaconstellation Kicks Off with Dangerous Debris Field


Newsletter sign-up

Weekly statistics, charts and insights to help you stay on top of the space industry.